Time,TemperatureF,DewpointF,PressureIn,WindDirection,WindDirectionDegrees,WindSpeedMPH,WindSpeedGustMPH,Humidity,HourlyPrecipIn,Conditions,Clouds,dailyrainin,SoftwareType,DateUTC
2013-01-24 00:02:00,35.1,24.8,30.29,NNE,23,0.0,2.0,66,0.00,,,0.00,meteohub,2013-01-24 06:02:00,
2013-01-24 00:07:00,35.1,24.8,30.29,SW,225,0.0,2.0,66,0.00,,,0.00,meteohub,2013-01-24 06:07:00,
2013-01-24 00:12:00,34.9,24.6,30.30,NE,45,2.0,3.0,66,0.00,,,0.00,meteohub,2013-01-24 06:12:00,
2013-01-24 00:17:00,34.9,24.6,30.30,West,270,2.0,3.0,66,0.00,,,0.00,meteohub,2013-01-24 06:17:00,
2013-01-24 00:22:00,34.7,24.4,30.30,NNE,23,2.0,2.0,66,0.00,,,0.00,meteohub,2013-01-24 06:22:00,
2013-01-24 00:27:00,34.5,24.3,30.30,ENE,68,0.0,3.0,66,0.00,,,0.00,meteohub,2013-01-24 06:27:00,
2013-01-24 00:32:00,34.5,24.3,30.28,NNE,23,2.0,3.0,66,0.00,,,0.00,meteohub,2013-01-24 06:32:00,
2013-01-24 00:37:00,34.3,24.1,30.28,NNE,23,0.0,3.0,66,0.00,,,0.00,meteohub,2013-01-24 06:37:00,
2013-01-24 00:42:00,34.3,24.1,30.28,NNE,23,2.0,3.0,66,0.00,,,0.00,meteohub,2013-01-24 06:42:00,
2013-01-24 00:48:00,34.2,24.1,30.28,NNW,338,2.0,4.0,66,0.00,,,0.00,meteohub,2013-01-24 06:48:00,
2013-01-24 00:53:00,33.8,23.7,30.30,NNW,338,2.0,4.0,66,0.00,,,0.00,meteohub,2013-01-24 06:53:00,
2013-01-24 00:58:00,33.6,23.5,30.30,NNE,23,0.0,3.0,66,0.00,,,0.00,meteohub,2013-01-24 06:58:00,
2013-01-24 01:03:00,33.4,23.4,30.30,NNE,23,2.0,3.0,66,0.00,,,0.00,meteohub,2013-01-24 07:03:00,
2013-01-24 01:08:00,33.4,23.4,30.30,ENE,68,2.0,3.0,66,0.00,,,0.00,meteohub,2013-01-24 07:08:00,
2013-01-24 01:13:00,33.3,23.2,30.31,ENE,68,2.0,3.0,66,0.00,,,0.00,meteohub,2013-01-24 07:13:00,
2013-01-24 01:18:00,33.3,23.2,30.31,ENE,68,1.0,3.0,66,0.00,,,0.00,meteohub,2013-01-24 07:18:00,
2013-01-24 01:23:00,32.9,22.8,30.32,ENE,68,4.0,4.0,66,0.00,,,0.00,meteohub,2013-01-24 07:23:00,
2013-01-24 01:28:00,32.9,22.8,30.32,NNE,23,2.0,4.0,66,0.00,,,0.00,meteohub,2013-01-24 07:28:00,
2013-01-24 01:33:00,32.5,22.5,30.32,NNE,23,2.0,4.0,66,0.00,,,0.00,meteohub,2013-01-24 07:33:00,
2013-01-24 01:38:00,32.5,22.5,30.32,NNE,23,2.0,4.0,66,0.00,,,0.00,meteohub,2013-01-24 07:38:00,
2013-01-24 01:43:00,32.2,22.1,30.32,East,90,2.0,3.0,66,0.00,,,0.00,meteohub,2013-01-24 07:43:00,
2013-01-24 01:48:00,32.0,21.9,30.32,NE,45,3.0,3.0,66,0.00,,,0.00,meteohub,2013-01-24 07:48:00,
2013-01-24 01:53:00,32.0,21.9,30.32,NNE,23,5.0,5.0,66,0.00,,,0.00,meteohub,2013-01-24 07:53:00,
2013-01-24 01:58:00,31.8,21.7,30.32,NE,45,3.0,3.0,66,0.00,,,0.00,meteohub,2013-01-24 07:58:00,
2013-01-24 02:03:00,31.8,21.7,30.32,NNW,338,5.0,5.0,66,0.00,,,0.00,meteohub,2013-01-24 08:03:00,
2013-01-24 02:08:00,31.8,21.4,30.32,ENE,68,3.0,5.0,65,0.00,,,0.00,meteohub,2013-01-24 08:08:00,
2013-01-24 02:13:00,31.8,21.4,30.32,NNE,23,3.0,5.0,65,0.00,,,0.00,meteohub,2013-01-24 08:13:00,
2013-01-24 02:18:00,31.5,21.0,30.32,NE,45,3.0,5.0,65,0.00,,,0.00,meteohub,2013-01-24 08:18:00,
2013-01-24 02:23:00,31.3,20.8,30.32,NE,45,4.0,4.0,65,0.00,,,0.00,meteohub,2013-01-24 08:23:00,
2013-01-24 02:28:00,31.3,20.5,30.33,NE,45,4.0,4.0,64,0.00,,,0.00,meteohub,2013-01-24 08:28:00,
2013-01-24 02:33:00,31.3,20.5,30.33,ENE,68,3.0,5.0,64,0.00,,,0.00,meteohub,2013-01-24 08:33:00,
2013-01-24 02:38:00,31.5,19.6,30.33,SE,135,2.0,5.0,61,0.00,,,0.00,meteohub,2013-01-24 08:38:00,
2013-01-24 02:43:00,31.1,19.2,30.33,NE,45,2.0,5.0,61,0.00,,,0.00,meteohub,2013-01-24 08:43:00,
2013-01-24 02:48:00,31.1,19.2,30.33,North,0,0.0,4.0,61,0.00,,,0.00,meteohub,2013-01-24 08:48:00,
2013-01-24 02:53:00,31.1,19.2,30.34,NW,315,3.0,4.0,61,0.00,,,0.00,meteohub,2013-01-24 08:53:00,
2013-01-24 02:58:00,30.9,18.7,30.34,NNE,23,2.0,4.0,60,0.00,,,0.00,meteohub,2013-01-24 08:58:00,
2013-01-24 03:03:00,31.1,18.9,30.34,NNE,23,2.0,4.0,60,0.00,,,0.00,meteohub,2013-01-24 09:03:00,
2013-01-24 03:08:00,30.7,18.1,30.34,NNE,23,3.0,4.0,59,0.00,,,0.00,meteohub,2013-01-24 09:08:00,
2013-01-24 03:13:00,30.7,18.1,30.34,NNW,338,0.0,5.0,59,0.00,,,0.00,meteohub,2013-01-24 09:13:00,
2013-01-24 03:18:00,30.6,18.0,30.34,NNE,23,4.0,5.0,59,0.00,,,0.00,meteohub,2013-01-24 09:18:00,
2013-01-24 03:23:00,30.4,17.8,30.35,NNE,23,2.0,5.0,59,0.00,,,0.00,meteohub,2013-01-24 09:23:00,
2013-01-24 03:28:00,30.4,18.1,30.35,West,270,3.0,5.0,60,0.00,,,0.00,meteohub,2013-01-24 09:28:00,
2013-01-24 03:33:00,30.4,18.1,30.35,NE,45,0.0,6.0,60,0.00,,,0.00,meteohub,2013-01-24 09:33:00,
2013-01-24 03:39:00,30.4,18.1,30.35,NE,45,3.0,6.0,60,0.00,,,0.00,meteohub,2013-01-24 09:39:00,
2013-01-24 03:43:00,30.2,18.3,30.35,SE,135,4.0,6.0,61,0.00,,,0.00,meteohub,2013-01-24 09:43:00,
2013-01-24 03:49:00,30.4,18.5,30.35,NE,45,3.0,4.0,61,0.00,,,0.00,meteohub,2013-01-24 09:49:00,
2013-01-24 03:54:00,30.0,17.8,30.35,NE,45,3.0,4.0,60,0.00,,,0.00,meteohub,2013-01-24 09:54:00,
2013-01-24 03:59:00,30.0,17.8,30.35,NW,315,3.0,4.0,60,0.00,,,0.00,meteohub,2013-01-24 09:59:00,
2013-01-24 04:04:00,29.8,17.6,30.35,NE,45,4.0,4.0,60,0.00,,,0.00,meteohub,2013-01-24 10:04:00,
2013-01-24 04:09:00,29.7,17.4,30.35,NE,45,4.0,5.0,60,0.00,,,0.00,meteohub,2013-01-24 10:09:00,
2013-01-24 04:14:00,29.5,17.2,30.35,NNW,338,3.0,5.0,60,0.00,,,0.00,meteohub,2013-01-24 10:14:00,
2013-01-24 04:19:00,29.7,17.4,30.35,NE,45,3.0,5.0,60,0.00,,,0.00,meteohub,2013-01-24 10:19:00,
2013-01-24 04:24:00,29.3,17.1,30.35,West,270,4.0,5.0,60,0.00,,,0.00,meteohub,2013-01-24 10:24:00,
2013-01-24 04:29:00,29.1,16.9,30.35,SSE,158,3.0,5.0,60,0.00,,,0.00,meteohub,2013-01-24 10:29:00,
2013-01-24 04:34:00,29.3,17.1,30.35,NE,45,5.0,5.0,60,0.00,,,0.00,meteohub,2013-01-24 10:34:00,
2013-01-24 04:39:00,28.9,16.9,30.35,ENE,68,3.0,4.0,60,0.00,,,0.00,meteohub,2013-01-24 10:39:00,
2013-01-24 04:44:00,28.9,16.9,30.35,NE,45,5.0,6.0,60,0.00,,,0.00,meteohub,2013-01-24 10:44:00,
2013-01-24 04:49:00,28.9,16.9,30.36,NW,315,2.0,6.0,60,0.00,,,0.00,meteohub,2013-01-24 10:49:00,
2013-01-24 04:54:00,28.9,16.9,30.36,NNE,23,4.0,6.0,60,0.00,,,0.00,meteohub,2013-01-24 10:54:00,
2013-01-24 04:59:00,28.6,16.2,30.37,NW,315,2.0,5.0,59,0.00,,,0.00,meteohub,2013-01-24 10:59:00,
2013-01-24 05:04:00,28.6,16.2,30.37,ENE,68,4.0,6.0,59,0.00,,,0.00,meteohub,2013-01-24 11:04:00,
2013-01-24 05:09:00,28.4,16.0,30.36,ESE,113,4.0,6.0,59,0.00,,,0.00,meteohub,2013-01-24 11:09:00,
2013-01-24 05:14:00,28.2,15.8,30.36,SE,135,4.0,6.0,59,0.00,,,0.00,meteohub,2013-01-24 11:14:00,
2013-01-24 05:19:00,28.2,15.8,30.36,SE,135,6.0,6.0,59,0.00,,,0.00,meteohub,2013-01-24 11:19:00,
2013-01-24 05:24:00,28.2,15.8,30.36,SE,135,9.0,9.0,59,0.00,,,0.00,meteohub,2013-01-24 11:24:00,
2013-01-24 05:29:00,27.9,15.4,30.36,ESE,113,8.0,9.0,59,0.00,,,0.00,meteohub,2013-01-24 11:29:00,
2013-01-24 05:34:00,27.9,15.4,30.36,East,90,2.0,9.0,59,0.00,,,0.00,meteohub,2013-01-24 11:34:00,
2013-01-24 05:39:00,27.7,15.6,30.36,NE,45,2.0,9.0,60,0.00,,,0.00,meteohub,2013-01-24 11:39:00,
2013-01-24 05:44:00,27.5,15.4,30.36,NE,45,3.0,9.0,60,0.00,,,0.00,meteohub,2013-01-24 11:44:00,
2013-01-24 05:49:00,27.5,15.4,30.37,ENE,68,3.0,6.0,60,0.00,,,0.00,meteohub,2013-01-24 11:49:00,
2013-01-24 05:54:00,27.5,15.8,30.37,ENE,68,2.0,6.0,61,0.00,,,0.00,meteohub,2013-01-24 11:54:00,
2013-01-24 05:59:00,27.5,15.8,30.37,ENE,68,3.0,4.0,61,0.00,,,0.00,meteohub,2013-01-24 11:59:00,
2013-01-24 06:04:00,27.1,15.4,30.37,ESE,113,5.0,5.0,61,0.00,,,0.00,meteohub,2013-01-24 12:04:00,
2013-01-24 06:09:00,27.1,14.4,30.37,East,90,7.0,7.0,58,0.00,,,0.00,meteohub,2013-01-24 12:09:00,
2013-01-24 06:14:00,27.0,14.2,30.37,ESE,113,5.0,5.0,58,0.00,,,0.00,meteohub,2013-01-24 12:14:00,
2013-01-24 06:19:00,26.8,14.0,30.37,ESE,113,3.0,7.0,58,0.00,,,0.00,meteohub,2013-01-24 12:19:00,
2013-01-24 06:24:00,26.8,13.6,30.37,NNE,23,5.0,7.0,57,0.00,,,0.00,meteohub,2013-01-24 12:24:00,
2013-01-24 06:29:00,26.4,13.6,30.38,NE,45,0.0,7.0,58,0.00,,,0.00,meteohub,2013-01-24 12:29:00,
2013-01-24 06:34:00,26.2,13.1,30.38,NNW,338,2.0,7.0,57,0.00,,,0.00,meteohub,2013-01-24 12:34:00,
2013-01-24 06:39:00,26.1,13.3,30.38,NNE,23,2.0,7.0,58,0.00,,,0.00,meteohub,2013-01-24 12:39:00,
2013-01-24 06:44:00,26.1,13.3,30.38,ESE,113,4.0,5.0,58,0.00,,,0.00,meteohub,2013-01-24 12:44:00,
2013-01-24 06:49:00,26.1,13.3,30.39,East,90,3.0,5.0,58,0.00,,,0.00,meteohub,2013-01-24 12:49:00,
2013-01-24 06:54:00,25.7,13.3,30.39,NE,45,3.0,5.0,59,0.00,,,0.00,meteohub,2013-01-24 12:54:00,
2013-01-24 06:59:00,25.7,12.9,30.39,ENE,68,2.0,4.0,58,0.00,,,0.00,meteohub,2013-01-24 12:59:00,
2013-01-24 07:04:00,25.7,12.9,30.39,East,90,7.0,7.0,58,0.00,,,0.00,meteohub,2013-01-24 13:04:00,
2013-01-24 07:09:00,25.5,12.4,30.39,ENE,68,9.0,9.0,57,0.00,,,0.00,meteohub,2013-01-24 13:09:00,
2013-01-24 07:14:00,25.3,11.8,30.39,ESE,113,6.0,9.0,56,0.00,,,0.00,meteohub,2013-01-24 13:14:00,
2013-01-24 07:19:00,25.3,11.8,30.39,ENE,68,7.0,9.0,56,0.00,,,0.00,meteohub,2013-01-24 13:19:00,
2013-01-24 07:24:00,24.8,11.3,30.39,NE,45,5.0,9.0,56,0.00,,,0.00,meteohub,2013-01-24 13:24:00,
2013-01-24 07:29:00,24.6,11.5,30.43,ESE,113,5.0,9.0,57,0.00,,,0.00,meteohub,2013-01-24 13:29:00,
2013-01-24 07:34:00,24.4,11.5,30.43,NE,45,6.0,9.0,57,0.00,,,0.00,meteohub,2013-01-24 13:34:00,
2013-01-24 07:39:00,24.6,12.0,30.43,NE,45,4.0,9.0,58,0.00,,,0.00,meteohub,2013-01-24 13:39:00,
2013-01-24 07:44:00,24.3,11.7,30.43,SE,135,7.0,7.0,58,0.00,,,0.00,meteohub,2013-01-24 13:44:00,
2013-01-24 07:49:00,24.1,11.8,30.45,ENE,68,4.0,7.0,59,0.00,,,0.00,meteohub,2013-01-24 13:49:00,
2013-01-24 07:55:00,24.1,11.8,30.45,ENE,68,2.0,7.0,59,0.00,,,0.00,meteohub,2013-01-24 13:55:00,
2013-01-24 08:00:00,24.1,11.8,30.45,NE,45,1.0,7.0,59,0.00,,,0.00,meteohub,2013-01-24 14:00:00,
2013-01-24 08:05:00,24.1,12.2,30.45,ENE,68,3.0,4.0,60,0.00,,,0.00,meteohub,2013-01-24 14:05:00,
2013-01-24 08:10:00,24.3,12.4,30.42,NE,45,3.0,4.0,60,0.00,,,0.00,meteohub,2013-01-24 14:10:00,
2013-01-24 08:15:00,24.3,12.4,30.42,East,90,4.0,6.0,60,0.00,,,0.00,meteohub,2013-01-24 14:15:00,
2013-01-24 08:20:00,24.3,12.4,30.42,NNE,23,4.0,6.0,60,0.00,,,0.00,meteohub,2013-01-24 14:20:00,
2013-01-24 08:25:00,24.6,12.7,30.42,ENE,68,3.0,6.0,60,0.00,,,0.00,meteohub,2013-01-24 14:25:00,
2013-01-24 08:30:00,24.6,12.7,30.42,ESE,113,2.0,6.0,60,0.00,,,0.00,meteohub,2013-01-24 14:30:00,
2013-01-24 08:35:00,24.6,12.7,30.42,ENE,68,4.0,4.0,60,0.00,,,0.00,meteohub,2013-01-24 14:35:00,
2013-01-24 08:40:00,24.6,12.7,30.42,NNE,23,4.0,4.0,60,0.00,,,0.00,meteohub,2013-01-24 14:40:00,
2013-01-24 08:45:00,24.3,12.4,30.42,ENE,68,4.0,5.0,60,0.00,,,0.00,meteohub,2013-01-24 14:45:00,
2013-01-24 08:50:00,24.6,12.7,30.43,NNE,23,5.0,5.0,60,0.00,,,0.00,meteohub,2013-01-24 14:50:00,
2013-01-24 08:55:00,24.6,12.7,30.43,ESE,113,9.0,9.0,60,0.00,,,0.00,meteohub,2013-01-24 14:55:00,
2013-01-24 09:00:00,24.6,12.7,30.43,ESE,113,5.0,9.0,60,0.00,,,0.00,meteohub,2013-01-24 15:00:00,
2013-01-24 09:05:00,25.0,13.1,30.43,ESE,113,4.0,9.0,60,0.00,,,0.00,meteohub,2013-01-24 15:05:00,
2013-01-24 09:10:00,25.3,13.5,30.43,ESE,113,5.0,9.0,60,0.00,,,0.00,meteohub,2013-01-24 15:10:00,
2013-01-24 09:15:00,25.2,13.3,30.43,SE,135,3.0,10.0,60,0.00,,,0.00,meteohub,2013-01-24 15:15:00,
2013-01-24 09:20:00,25.3,13.5,30.43,SE,135,2.0,10.0,60,0.00,,,0.00,meteohub,2013-01-24 15:20:00,
2013-01-24 09:25:00,25.3,13.5,30.43,ENE,68,5.0,8.0,60,0.00,,,0.00,meteohub,2013-01-24 15:25:00,
2013-01-24 09:30:00,25.5,13.6,30.42,ENE,68,4.0,8.0,60,0.00,,,0.00,meteohub,2013-01-24 15:30:00,
2013-01-24 09:35:00,25.5,13.6,30.42,ESE,113,4.0,5.0,60,0.00,,,0.00,meteohub,2013-01-24 15:35:00,
2013-01-24 09:40:00,25.7,13.8,30.42,ESE,113,6.0,6.0,60,0.00,,,0.00,meteohub,2013-01-24 15:40:00,
2013-01-24 09:45:00,26.1,14.0,30.42,ESE,113,6.0,6.0,60,0.00,,,0.00,meteohub,2013-01-24 15:45:00,
2013-01-24 09:50:00,26.2,13.8,30.42,East,90,9.0,9.0,59,0.00,,,0.00,meteohub,2013-01-24 15:50:00,
2013-01-24 09:55:00,26.8,14.0,30.41,ENE,68,9.0,9.0,58,0.00,,,0.00,meteohub,2013-01-24 15:55:00,
2013-01-24 10:00:00,26.8,14.4,30.41,ESE,113,3.0,9.0,59,0.00,,,0.00,meteohub,2013-01-24 16:00:00,
2013-01-24 10:05:00,27.0,14.2,30.41,SE,135,4.0,9.0,58,0.00,,,0.00,meteohub,2013-01-24 16:05:00,
2013-01-24 10:10:00,27.1,14.0,30.41,SE,135,4.0,9.0,57,0.00,,,0.00,meteohub,2013-01-24 16:10:00,
2013-01-24 10:15:00,27.1,14.0,30.41,ENE,68,4.0,7.0,57,0.00,,,0.00,meteohub,2013-01-24 16:15:00,
2013-01-24 10:20:00,27.5,14.2,30.41,ESE,113,3.0,6.0,57,0.00,,,0.00,meteohub,2013-01-24 16:20:00,
2013-01-24 10:25:00,27.5,14.2,30.41,East,90,4.0,6.0,57,0.00,,,0.00,meteohub,2013-01-24 16:25:00,
2013-01-24 10:30:00,27.5,14.2,30.40,SE,135,3.0,6.0,57,0.00,,,0.00,meteohub,2013-01-24 16:30:00,
2013-01-24 10:35:00,27.9,14.2,30.40,ENE,68,5.0,8.0,56,0.00,,,0.00,meteohub,2013-01-24 16:35:00,
2013-01-24 10:40:00,28.2,14.5,30.40,SE,135,8.0,8.0,56,0.00,,,0.00,meteohub,2013-01-24 16:40:00,
2013-01-24 10:45:00,28.6,14.9,30.40,ESE,113,6.0,8.0,56,0.00,,,0.00,meteohub,2013-01-24 16:45:00,
2013-01-24 10:50:00,29.1,14.9,30.43,ENE,68,5.0,8.0,55,0.00,,,0.00,meteohub,2013-01-24 16:50:00,
2013-01-24 10:55:00,29.3,15.1,30.43,SE,135,5.0,8.0,55,0.00,,,0.00,meteohub,2013-01-24 16:55:00,
2013-01-24 11:00:00,29.7,15.4,30.43,ESE,113,4.0,8.0,55,0.00,,,0.00,meteohub,2013-01-24 17:00:00,
2013-01-24 11:05:00,30.0,15.4,30.43,ESE,113,4.0,7.0,54,0.00,,,0.00,meteohub,2013-01-24 17:05:00,
2013-01-24 11:10:00,30.4,15.8,30.43,East,90,4.0,8.0,54,0.00,,,0.00,meteohub,2013-01-24 17:10:00,
2013-01-24 11:15:00,30.4,15.3,30.43,ESE,113,10.0,10.0,53,0.00,,,0.00,meteohub,2013-01-24 17:15:00,
2013-01-24 11:20:00,30.6,15.4,30.43,SSE,158,7.0,10.0,53,0.00,,,0.00,meteohub,2013-01-24 17:20:00,
2013-01-24 11:25:00,30.7,15.6,30.43,ESE,113,5.0,10.0,53,0.00,,,0.00,meteohub,2013-01-24 17:25:00,
2013-01-24 11:30:00,31.1,16.0,30.43,ESE,113,2.0,10.0,53,0.00,,,0.00,meteohub,2013-01-24 17:30:00,
2013-01-24 11:35:00,31.1,15.4,30.43,East,90,9.0,9.0,52,0.00,,,0.00,meteohub,2013-01-24 17:35:00,
2013-01-24 11:40:00,31.1,15.4,30.43,ESE,113,7.0,9.0,52,0.00,,,0.00,meteohub,2013-01-24 17:40:00,
2013-01-24 11:45:00,31.1,15.4,30.43,SE,135,3.0,9.0,52,0.00,,,0.00,meteohub,2013-01-24 17:45:00,
2013-01-24 11:50:00,31.3,15.6,30.41,NNE,23,2.0,9.0,52,0.00,,,0.00,meteohub,2013-01-24 17:50:00,
2013-01-24 11:55:00,31.8,16.2,30.41,ESE,113,4.0,8.0,52,0.00,,,0.00,meteohub,2013-01-24 17:55:00,
2013-01-24 12:01:00,31.8,15.8,30.41,ESE,113,10.0,10.0,51,0.00,,,0.00,meteohub,2013-01-24 18:01:00,
2013-01-24 12:06:00,31.8,15.8,30.41,East,90,4.0,10.0,51,0.00,,,0.00,meteohub,2013-01-24 18:06:00,
2013-01-24 12:11:00,32.0,16.0,30.39,ESE,113,8.0,10.0,51,0.00,,,0.00,meteohub,2013-01-24 18:11:00,
2013-01-24 12:16:00,32.2,16.2,30.39,ENE,68,7.0,8.0,51,0.00,,,0.00,meteohub,2013-01-24 18:16:00,
2013-01-24 12:21:00,32.2,16.2,30.39,ESE,113,4.0,8.0,51,0.00,,,0.00,meteohub,2013-01-24 18:21:00,
2013-01-24 12:26:00,32.2,16.2,30.39,ESE,113,4.0,8.0,51,0.00,,,0.00,meteohub,2013-01-24 18:26:00,
2013-01-24 12:31:00,32.2,16.2,30.39,SE,135,3.0,7.0,51,0.00,,,0.00,meteohub,2013-01-24 18:31:00,
2013-01-24 12:36:00,32.5,16.0,30.39,SE,135,5.0,8.0,50,0.00,,,0.00,meteohub,2013-01-24 18:36:00,
2013-01-24 12:41:00,32.7,16.5,30.39,ESE,113,5.0,8.0,51,0.00,,,0.00,meteohub,2013-01-24 18:41:00,
2013-01-24 12:46:00,32.7,16.5,30.39,ESE,113,4.0,8.0,51,0.00,,,0.00,meteohub,2013-01-24 18:46:00,
2013-01-24 12:51:00,32.7,16.2,30.37,East,90,7.0,7.0,50,0.00,,,0.00,meteohub,2013-01-24 18:51:00,
2013-01-24 12:56:00,32.7,16.5,30.37,ESE,113,7.0,8.0,51,0.00,,,0.00,meteohub,2013-01-24 18:56:00,
2013-01-24 13:01:00,33.1,16.9,30.37,East,90,4.0,8.0,51,0.00,,,0.00,meteohub,2013-01-24 19:01:00,
2013-01-24 13:06:00,33.3,17.1,30.37,ESE,113,2.0,7.0,51,0.00,,,0.00,meteohub,2013-01-24 19:06:00,
2013-01-24 13:11:00,33.4,16.9,30.35,SE,135,7.0,7.0,50,0.00,,,0.00,meteohub,2013-01-24 19:11:00,
2013-01-24 13:16:00,33.4,16.3,30.35,ESE,113,4.0,7.0,49,0.00,,,0.00,meteohub,2013-01-24 19:16:00,
2013-01-24 13:21:00,33.6,16.9,30.35,ESE,113,3.0,7.0,50,0.00,,,0.00,meteohub,2013-01-24 19:21:00,
2013-01-24 13:26:00,34.0,16.9,30.35,East,90,4.0,7.0,49,0.00,,,0.00,meteohub,2013-01-24 19:26:00,
2013-01-24 13:31:00,34.0,17.2,30.33,ESE,113,6.0,7.0,50,0.00,,,0.00,meteohub,2013-01-24 19:31:00,
2013-01-24 13:36:00,33.8,16.7,30.33,ESE,113,3.0,6.0,49,0.00,,,0.00,meteohub,2013-01-24 19:36:00,
2013-01-24 13:41:00,33.8,16.7,30.33,SE,135,3.0,6.0,49,0.00,,,0.00,meteohub,2013-01-24 19:41:00,
2013-01-24 13:46:00,33.6,16.5,30.33,North,0,5.0,6.0,49,0.00,,,0.00,meteohub,2013-01-24 19:46:00,
2013-01-24 13:51:00,33.6,16.5,30.28,SE,135,4.0,6.0,49,0.00,,,0.00,meteohub,2013-01-24 19:51:00,
2013-01-24 13:56:00,33.6,16.5,30.28,SE,135,4.0,6.0,49,0.00,,,0.00,meteohub,2013-01-24 19:56:00,
2013-01-24 14:01:00,33.6,16.5,30.28,SE,135,2.0,6.0,49,0.00,,,0.00,meteohub,2013-01-24 20:01:00,
2013-01-24 14:06:00,33.4,16.3,30.28,SSW,203,4.0,5.0,49,0.00,,,0.00,meteohub,2013-01-24 20:06:00,
2013-01-24 14:11:00,33.6,16.9,30.26,SE,135,3.0,5.0,50,0.00,,,0.00,meteohub,2013-01-24 20:11:00,
2013-01-24 14:16:00,33.6,16.9,30.26,ESE,113,4.0,6.0,50,0.00,,,0.00,meteohub,2013-01-24 20:16:00,
2013-01-24 14:21:00,33.4,16.9,30.26,ESE,113,8.0,8.0,50,0.00,,,0.00,meteohub,2013-01-24 20:21:00,
2013-01-24 14:26:00,33.3,16.2,30.26,ESE,113,4.0,8.0,49,0.00,,,0.00,meteohub,2013-01-24 20:26:00,
2013-01-24 14:31:00,33.3,16.7,30.23,SSE,158,4.0,8.0,50,0.00,,,0.00,meteohub,2013-01-24 20:31:00,
2013-01-24 14:36:00,33.4,16.9,30.23,ESE,113,5.0,8.0,50,0.00,,,0.00,meteohub,2013-01-24 20:36:00,
2013-01-24 14:41:00,33.4,16.9,30.23,ESE,113,8.0,8.0,50,0.00,,,0.00,meteohub,2013-01-24 20:41:00,
2013-01-24 14:46:00,33.4,16.3,30.23,SE,135,6.0,8.0,49,0.00,,,0.00,meteohub,2013-01-24 20:46:00,
2013-01-24 14:51:00,33.4,16.3,30.23,SE,135,4.0,8.0,49,0.00,,,0.00,meteohub,2013-01-24 20:51:00,
2013-01-24 14:56:00,33.3,16.7,30.23,ENE,68,2.0,9.0,50,0.00,,,0.00,meteohub,2013-01-24 20:56:00,
2013-01-24 15:01:00,33.3,16.7,30.23,SSE,158,3.0,9.0,50,0.00,,,0.00,meteohub,2013-01-24 21:01:00,
2013-01-24 15:06:00,33.1,16.5,30.23,SSW,203,2.0,7.0,50,0.00,,,0.00,meteohub,2013-01-24 21:06:00,
2013-01-24 15:11:00,33.3,17.1,30.23,SE,135,2.0,7.0,51,0.00,,,0.00,meteohub,2013-01-24 21:11:00,
2013-01-24 15:16:00,33.3,17.1,30.23,ENE,68,0.0,6.0,51,0.00,,,0.00,meteohub,2013-01-24 21:16:00,
2013-01-24 15:21:00,33.4,17.2,30.23,ESE,113,2.0,4.0,51,0.00,,,0.00,meteohub,2013-01-24 21:21:00,
2013-01-24 15:26:00,33.4,17.2,30.23,ESE,113,3.0,4.0,51,0.00,,,0.00,meteohub,2013-01-24 21:26:00,
2013-01-24 15:31:00,33.4,16.9,30.22,ENE,68,4.0,11.0,50,0.00,,,0.00,meteohub,2013-01-24 21:31:00,
2013-01-24 15:36:00,33.4,16.3,30.22,SE,135,4.0,11.0,49,0.00,,,0.00,meteohub,2013-01-24 21:36:00,
2013-01-24 15:41:00,33.4,16.3,30.22,ESE,113,4.0,11.0,49,0.00,,,0.00,meteohub,2013-01-24 21:41:00,
2013-01-24 15:46:00,33.4,16.3,30.22,SE,135,4.0,7.0,49,0.00,,,0.00,meteohub,2013-01-24 21:46:00,
2013-01-24 15:51:00,33.4,16.3,30.21,ESE,113,5.0,7.0,49,0.00,,,0.00,meteohub,2013-01-24 21:51:00,
2013-01-24 15:56:00,33.4,16.3,30.21,ESE,113,5.0,8.0,49,0.00,,,0.00,meteohub,2013-01-24 21:56:00,
2013-01-24 16:01:00,33.6,16.5,30.21,ESE,113,4.0,8.0,49,0.00,,,0.00,meteohub,2013-01-24 22:01:00,
2013-01-24 16:06:00,33.4,16.3,30.21,East,90,3.0,8.0,49,0.00,,,0.00,meteohub,2013-01-24 22:06:00,
2013-01-24 16:11:00,33.4,16.3,30.21,SSE,158,6.0,6.0,49,0.00,,,0.00,meteohub,2013-01-24 22:11:00,
2013-01-24 16:16:00,33.4,16.3,30.21,ESE,113,7.0,9.0,49,0.00,,,0.00,meteohub,2013-01-24 22:16:00,
2013-01-24 16:21:00,33.4,16.3,30.21,SE,135,6.0,9.0,49,0.00,,,0.00,meteohub,2013-01-24 22:21:00,
2013-01-24 16:26:00,33.4,16.3,30.21,ESE,113,7.0,7.0,49,0.00,,,0.00,meteohub,2013-01-24 22:26:00,
2013-01-24 16:31:00,33.4,16.9,30.21,SSE,158,1.0,7.0,50,0.00,,,0.00,meteohub,2013-01-24 22:31:00,
2013-01-24 16:36:00,33.4,16.9,30.21,SE,135,3.0,7.0,50,0.00,,,0.00,meteohub,2013-01-24 22:36:00,
2013-01-24 16:41:00,33.3,16.7,30.21,SSE,158,3.0,8.0,50,0.00,,,0.00,meteohub,2013-01-24 22:41:00,
2013-01-24 16:46:00,33.4,16.9,30.21,SE,135,6.0,8.0,50,0.00,,,0.00,meteohub,2013-01-24 22:46:00,
2013-01-24 16:51:00,33.4,16.9,30.21,SE,135,2.0,8.0,50,0.00,,,0.00,meteohub,2013-01-24 22:51:00,
2013-01-24 16:56:00,33.3,16.7,30.22,SE,135,5.0,6.0,50,0.00,,,0.00,meteohub,2013-01-24 22:56:00,
2013-01-24 17:02:00,33.3,16.7,30.22,South,180,2.0,6.0,50,0.00,,,0.00,meteohub,2013-01-24 23:02:00,
2013-01-24 17:07:00,33.3,16.2,30.22,ESE,113,6.0,6.0,49,0.00,,,0.00,meteohub,2013-01-24 23:07:00,
2013-01-24 17:12:00,32.9,16.3,30.22,SE,135,5.0,6.0,50,0.00,,,0.00,meteohub,2013-01-24 23:12:00,
2013-01-24 17:17:00,32.9,16.3,30.22,SE,135,4.0,6.0,50,0.00,,,0.00,meteohub,2013-01-24 23:17:00,
2013-01-24 17:22:00,32.7,16.2,30.22,SE,135,4.0,9.0,50,0.00,,,0.00,meteohub,2013-01-24 23:22:00,
2013-01-24 17:27:00,32.9,16.7,30.22,SE,135,2.0,9.0,51,0.00,,,0.00,meteohub,2013-01-24 23:27:00,
2013-01-24 17:32:00,32.7,16.5,30.21,ESE,113,4.0,9.0,51,0.00,,,0.00,meteohub,2013-01-24 23:32:00,
2013-01-24 17:37:00,32.5,16.3,30.21,SE,135,8.0,8.0,51,0.00,,,0.00,meteohub,2013-01-24 23:37:00,
2013-01-24 17:42:00,32.5,16.3,30.21,ESE,113,5.0,8.0,51,0.00,,,0.00,meteohub,2013-01-24 23:42:00,
2013-01-24 17:47:00,32.4,16.7,30.21,WSW,248,5.0,8.0,52,0.00,,,0.00,meteohub,2013-01-24 23:47:00,
2013-01-24 17:52:00,32.2,17.1,30.20,ESE,113,4.0,8.0,53,0.00,,,0.00,meteohub,2013-01-24 23:52:00,
2013-01-24 17:57:00,32.0,16.9,30.21,SE,135,5.0,8.0,53,0.00,,,0.00,meteohub,2013-01-24 23:57:00,
2013-01-24 18:02:00,32.0,16.9,30.21,SE,135,4.0,5.0,53,0.00,,,0.00,meteohub,2013-01-25 00:02:00,
2013-01-24 18:07:00,32.2,17.4,30.20,ESE,113,3.0,6.0,54,0.00,,,0.00,meteohub,2013-01-25 00:07:00,
2013-01-24 18:12:00,31.8,17.1,30.22,ESE,113,4.0,6.0,54,0.00,,,0.00,meteohub,2013-01-25 00:12:00,
2013-01-24 18:17:00,31.8,17.1,30.22,SE,135,6.0,6.0,54,0.00,,,0.00,meteohub,2013-01-25 00:17:00,
2013-01-24 18:22:00,31.8,16.7,30.22,SSE,158,5.0,7.0,53,0.00,,,0.00,meteohub,2013-01-25 00:22:00,
2013-01-24 18:27:00,31.6,16.5,30.22,SE,135,7.0,7.0,53,0.00,,,0.00,meteohub,2013-01-25 00:27:00,
2013-01-24 18:32:00,31.8,16.7,30.21,ESE,113,4.0,7.0,53,0.00,,,0.00,meteohub,2013-01-25 00:32:00,
2013-01-24 18:37:00,31.8,16.7,30.21,SE,135,2.0,7.0,53,0.00,,,0.00,meteohub,2013-01-25 00:37:00,
2013-01-24 18:42:00,31.8,16.2,30.21,ESE,113,5.0,7.0,52,0.00,,,0.00,meteohub,2013-01-25 00:42:00,
2013-01-24 18:47:00,31.8,16.2,30.21,ESE,113,5.0,6.0,52,0.00,,,0.00,meteohub,2013-01-25 00:47:00,
2013-01-24 18:52:00,31.6,15.6,30.24,ESE,113,12.0,12.0,51,0.00,,,0.00,meteohub,2013-01-25 00:52:00,
2013-01-24 18:57:00,31.8,15.3,30.24,SE,135,7.0,12.0,50,0.00,,,0.00,meteohub,2013-01-25 00:57:00,
2013-01-24 19:02:00,31.8,15.8,30.24,East,90,4.0,12.0,51,0.00,,,0.00,meteohub,2013-01-25 01:02:00,
2013-01-24 19:07:00,31.5,14.9,30.24,SE,135,3.0,12.0,50,0.00,,,0.00,meteohub,2013-01-25 01:07:00,
2013-01-24 19:12:00,31.5,15.4,30.21,ESE,113,1.0,13.0,51,0.00,,,0.00,meteohub,2013-01-25 01:12:00,
2013-01-24 19:17:00,31.5,15.4,30.21,ESE,113,8.0,13.0,51,0.00,,,0.00,meteohub,2013-01-25 01:17:00,
2013-01-24 19:22:00,31.5,14.9,30.21,SE,135,9.0,16.0,50,0.00,,,0.00,meteohub,2013-01-25 01:22:00,
2013-01-24 19:27:00,31.3,14.7,30.21,SE,135,2.0,16.0,50,0.00,,,0.00,meteohub,2013-01-25 01:27:00,
2013-01-24 19:32:00,31.3,14.7,30.19,SE,135,7.0,16.0,50,0.00,,,0.00,meteohub,2013-01-25 01:32:00,
2013-01-24 19:37:00,31.3,15.3,30.19,SSE,158,10.0,10.0,51,0.00,,,0.00,meteohub,2013-01-25 01:37:00,
2013-01-24 19:42:00,31.1,15.1,30.19,SE,135,9.0,10.0,51,0.00,,,0.00,meteohub,2013-01-25 01:42:00,
2013-01-24 19:47:00,31.1,15.1,30.19,ESE,113,5.0,10.0,51,0.00,,,0.00,meteohub,2013-01-25 01:47:00,
2013-01-24 19:52:00,31.1,15.1,30.21,SW,225,4.0,10.0,51,0.00,,,0.00,meteohub,2013-01-25 01:52:00,
2013-01-24 19:57:00,30.7,15.3,30.21,ESE,113,9.0,11.0,52,0.00,,,0.00,meteohub,2013-01-25 01:57:00,
2013-01-24 20:02:00,30.7,15.3,30.21,ESE,113,5.0,11.0,52,0.00,,,0.00,meteohub,2013-01-25 02:02:00,
2013-01-24 20:07:00,30.6,15.4,30.21,SE,135,5.0,9.0,53,0.00,,,0.00,meteohub,2013-01-25 02:07:00,
2013-01-24 20:12:00,30.6,15.4,30.21,SE,135,4.0,9.0,53,0.00,,,0.00,meteohub,2013-01-25 02:12:00,
2013-01-24 20:17:00,30.6,15.4,30.21,ESE,113,3.0,7.0,53,0.00,,,0.00,meteohub,2013-01-25 02:17:00,
2013-01-24 20:22:00,30.6,15.1,30.21,SE,135,2.0,7.0,52,0.00,,,0.00,meteohub,2013-01-25 02:22:00,
2013-01-24 20:27:00,30.6,15.1,30.21,ESE,113,3.0,4.0,52,0.00,,,0.00,meteohub,2013-01-25 02:27:00,
2013-01-24 20:32:00,30.6,15.1,30.21,SSE,158,6.0,6.0,52,0.00,,,0.00,meteohub,2013-01-25 02:32:00,
2013-01-24 20:37:00,30.6,15.1,30.21,NNW,338,2.0,6.0,52,0.00,,,0.00,meteohub,2013-01-25 02:37:00,
2013-01-24 20:42:00,30.6,15.1,30.21,East,90,3.0,6.0,52,0.00,,,0.00,meteohub,2013-01-25 02:42:00,
2013-01-24 20:47:00,30.6,14.5,30.21,SE,135,3.0,6.0,51,0.00,,,0.00,meteohub,2013-01-25 02:47:00,
2013-01-24 20:52:00,30.6,14.5,30.19,East,90,3.0,7.0,51,0.00,,,0.00,meteohub,2013-01-25 02:52:00,
2013-01-24 20:57:00,30.6,14.5,30.19,SE,135,5.0,7.0,51,0.00,,,0.00,meteohub,2013-01-25 02:57:00,
2013-01-24 21:02:00,30.6,14.5,30.19,ESE,113,2.0,7.0,51,0.00,,,0.00,meteohub,2013-01-25 03:02:00,
2013-01-24 21:07:00,30.6,14.5,30.19,SSE,158,3.0,8.0,51,0.00,,,0.00,meteohub,2013-01-25 03:07:00,
2013-01-24 21:12:00,30.6,14.5,30.20,ESE,113,5.0,8.0,51,0.00,,,0.00,meteohub,2013-01-25 03:12:00,
2013-01-24 21:17:00,30.6,15.1,30.20,SSE,158,4.0,7.0,52,0.00,,,0.00,meteohub,2013-01-25 03:17:00,
2013-01-24 21:22:00,30.7,15.3,30.20,South,180,2.0,7.0,52,0.00,,,0.00,meteohub,2013-01-25 03:22:00,
2013-01-24 21:27:00,30.6,14.5,30.20,SE,135,7.0,7.0,51,0.00,,,0.00,meteohub,2013-01-25 03:27:00,
2013-01-24 21:32:00,30.6,14.5,30.20,WSW,248,4.0,7.0,51,0.00,,,0.00,meteohub,2013-01-25 03:32:00,
2013-01-24 21:37:00,30.7,14.7,30.20,SE,135,4.0,7.0,51,0.00,,,0.00,meteohub,2013-01-25 03:37:00,
2013-01-24 21:42:00,30.4,14.4,30.20,South,180,3.0,7.0,51,0.00,,,0.00,meteohub,2013-01-25 03:42:00,
2013-01-24 21:47:00,30.4,14.4,30.20,ESE,113,2.0,5.0,51,0.00,,,0.00,meteohub,2013-01-25 03:47:00,
2013-01-24 21:52:00,30.4,14.9,30.20,SSE,158,2.0,5.0,52,0.00,,,0.00,meteohub,2013-01-25 03:52:00,
2013-01-24 21:57:00,30.4,14.9,30.20,SE,135,4.0,7.0,52,0.00,,,0.00,meteohub,2013-01-25 03:57:00,
2013-01-24 22:02:00,30.4,15.3,30.20,SSE,158,7.0,7.0,53,0.00,,,0.00,meteohub,2013-01-25 04:02:00,
2013-01-24 22:07:00,30.4,15.3,30.20,South,180,2.0,8.0,53,0.00,,,0.00,meteohub,2013-01-25 04:07:00,
2013-01-24 22:12:00,30.4,15.3,30.17,SE,135,3.0,8.0,53,0.00,,,0.00,meteohub,2013-01-25 04:12:00,
2013-01-24 22:17:00,30.4,15.8,30.17,SE,135,7.0,8.0,54,0.00,,,0.00,meteohub,2013-01-25 04:17:00,
2013-01-24 22:22:00,30.0,15.4,30.17,ESE,113,9.0,9.0,54,0.00,,,0.00,meteohub,2013-01-25 04:22:00,
2013-01-24 22:27:00,30.0,15.8,30.17,SE,135,2.0,9.0,55,0.00,,,0.00,meteohub,2013-01-25 04:27:00,
2013-01-24 22:32:00,30.0,16.2,30.16,SSE,158,3.0,9.0,56,0.00,,,0.00,meteohub,2013-01-25 04:32:00,
2013-01-24 22:37:00,29.8,16.0,30.16,South,180,2.0,11.0,56,0.00,,,0.00,meteohub,2013-01-25 04:37:00,
2013-01-24 22:42:00,29.7,16.3,30.16,SE,135,2.0,11.0,57,0.00,,,0.00,meteohub,2013-01-25 04:42:00,
2013-01-24 22:47:00,29.7,16.3,30.16,SE,135,11.0,11.0,57,0.00,,,0.00,meteohub,2013-01-25 04:47:00,
2013-01-24 22:52:00,29.7,16.7,30.15,ESE,113,9.0,11.0,58,0.00,,,0.00,meteohub,2013-01-25 04:52:00,
2013-01-24 22:57:00,29.7,16.7,30.15,ESE,113,4.0,11.0,58,0.00,,,0.00,meteohub,2013-01-25 04:57:00,
2013-01-24 23:00:00,29.7,16.7,30.15,ESE,113,5.0,11.0,58,0.00,,,0.00,meteohub,2013-01-25 05:00:00,
2013-01-24 23:01:00,29.7,16.7,30.15,SE,135,5.0,11.0,58,0.00,,,0.00,meteohub,2013-01-25 05:01:00,
2013-01-24 23:06:00,29.7,16.7,30.15,SE,135,4.0,9.0,58,0.00,,,0.00,meteohub,2013-01-25 05:06:00,
2013-01-24 23:11:00,29.7,16.7,30.16,SE,135,3.0,5.0,58,0.00,,,0.00,meteohub,2013-01-25 05:11:00,
2013-01-24 23:17:00,29.5,16.5,30.16,ESE,113,5.0,5.0,58,0.00,,,0.00,meteohub,2013-01-25 05:17:00,
2013-01-24 23:22:00,29.7,16.7,30.16,SE,135,5.0,5.0,58,0.00,,,0.00,meteohub,2013-01-25 05:22:00,
2013-01-24 23:27:00,29.7,17.1,30.16,ESE,113,2.0,6.0,59,0.00,,,0.00,meteohub,2013-01-25 05:27:00,
2013-01-24 23:32:00,29.3,16.7,30.17,SE,135,6.0,7.0,59,0.00,,,0.00,meteohub,2013-01-25 05:32:00,
2013-01-24 23:37:00,29.3,16.7,30.17,SE,135,2.0,7.0,59,0.00,,,0.00,meteohub,2013-01-25 05:37:00,
2013-01-24 23:42:00,29.3,17.1,30.17,SE,135,3.0,7.0,60,0.00,,,0.00,meteohub,2013-01-25 05:42:00,
2013-01-24 23:47:00,29.3,17.1,30.17,SE,135,3.0,7.0,60,0.00,,,0.00,meteohub,2013-01-25 05:47:00,
2013-01-24 23:52:00,29.3,17.1,30.17,ESE,113,2.0,5.0,60,0.00,,,0.00,meteohub,2013-01-25 05:52:00,
2013-01-24 23:57:00,29.1,16.9,30.17,SSE,158,1.0,5.0,60,0.00,,,0.00,meteohub,2013-01-25 05:57:00,